Location: Warszawa
(52.2500°N, 21.0000°E)
Time: 11:16:24
(UTC+01:00)

Transit 2A Rocket - Visible Passes

Search period start: 28 January 2023 00:00
Search period end: 07 February 2023 00:00
Orbit: 585 x 914 km, 66.7° (Epoch: 27 January)

Date Brightness Start Highest point End Pass type
(mag) Time Alt. Az. Time Alt. Az. Time Alt. Az.
28 Jan 7.8 02:32:02 13° NNE 02:32:02 13° NNE 02:32:41 10° NE visible
28 Jan 6.9 04:11:53 21° N 04:11:53 21° N 04:15:38 10° NE visible
28 Jan 7.0 05:51:45 10° NW 05:55:54 21° NNE 06:00:17 10° ENE visible
29 Jan 7.2 03:29:55 19° NNE 03:29:55 19° NNE 03:32:22 10° NNE visible
29 Jan 7.0 05:09:46 15° NNW 05:12:16 19° N 05:16:27 10° NE visible
30 Jan 7.6 02:47:55 16° NNE 02:47:55 16° NNE 02:49:12 10° NNE visible
30 Jan 6.9 04:27:46 19° NNW 04:28:38 19° N 04:32:45 10° NE visible
30 Jan 6.9 06:08:23 10° NNW 06:13:09 26° NNE 06:18:08 10° ENE visible
31 Jan 8.1 02:05:55 11° NNE 02:05:55 11° NNE 02:06:06 10° NNE visible
31 Jan 7.1 03:45:46 20° N 03:45:46 20° N 03:49:15 10° NE visible
31 Jan 7.0 05:25:38 12° NNW 05:29:35 22° NNE 05:34:12 10° ENE visible
01 Feb 7.4 03:03:46 18° NNE 03:03:46 18° NNE 03:05:53 10° NE visible
01 Feb 7.0 04:43:37 16° NNW 04:45:59 20° N 04:50:19 10° NE visible
01 Feb 6.5 06:24:51 10° NNW 06:30:14 36° NNE 06:35:49 10° E visible
02 Feb 7.8 02:21:45 14° NNE 02:21:45 14° NNE 02:22:40 10° NNE visible
02 Feb 7.1 04:01:37 19° N 04:02:21 19° N 04:06:31 10° NE visible
02 Feb 6.8 05:41:46 10° NNW 05:46:48 29° NNE 05:52:01 10° E visible
03 Feb 7.3 03:19:36 19° N 03:19:36 19° N 03:22:53 10° NE visible
03 Feb 7.0 04:59:28 13° NNW 05:03:16 24° NNE 05:08:07 10° ENE visible
04 Feb 7.6 02:37:36 16° NNE 02:37:36 16° NNE 02:39:26 10° NE visible
04 Feb 7.1 04:17:27 17° NNW 04:19:40 21° NNE 04:24:11 10° ENE visible
04 Feb 6.3 05:58:12 10° NNW 06:03:47 42° NE 06:09:33 10° ESE visible
05 Feb 8.0 01:55:35 12° NNE 01:55:35 12° NNE 01:56:08 10° NNE visible
05 Feb 7.1 03:35:27 19° N 03:36:02 20° N 03:40:20 10° NE visible
05 Feb 6.7 05:15:19 11° NNW 05:20:23 33° NNE 05:25:50 10° E visible
06 Feb 7.4 02:53:27 19° NNE 02:53:27 19° NNE 02:56:35 10° NE visible
06 Feb 7.0 04:33:19 16° NNW 04:36:55 27° NNE 04:41:59 10° E visible
06 Feb 5.7 06:14:35 10° NW 06:20:33 67° NE 06:26:39 10° SE visible
